User: anonymous   Login
Location: Ashtead
(51.3000°N, 0.3000°W)
Time: 20:19:08
(UTC+00:00)
Language:

METEOR-M - Orbit

View from above orbital plane
View from above orbital plane
View from above satellite
View from above satellite

Ground track
Ground track

The orbit data is extracted from the following two-line orbital elements,

1 35865U 09049A   24062.52257795  .00000192  00000-0  10523-3 0  9991
2 35865  98.6199  26.0413 0001863 183.7527 176.3637 14.22643047750264
Epoch (UTC): 02 March 2024 12:32:30
Eccentricity: 0.0001863
inclination: 98.6199°
perigee height: 815 km
apogee height: 818 km
right ascension of ascending node: 26.0413°
argument of perigee: 183.7527°
revolutions per day: 14.22643047
mean anomaly at epoch: 176.3637°
orbit number at epoch: 75026

The dashed part of the orbit path shows where the satellite is in the earth's shadow,  

DLR